Location: Gorze? G�rny
(49.8500°N, 19.5000°E)
Time: 03:13:57
(UTC+00:00)

USA 215 - Pass Details

Date: 13 May 2021
Orbit: 1100 x 1107 km, 123.0° (Epoch: 22 June)

Event Time Altitude Azimuth Distance (km) Brightness Sun altitude
Rises 20:00:37 0° 77° (ENE) 3,919 5.9 -13.2°
Reaches altitude 10° 20:03:11 10° 72° (ENE) 2,962 5.3 -13.4°
Maximum altitude 20:09:22 48° 1° (N) 1,414 4.2 -14.0°
Drops below altitude 10° 20:15:35 10° 290° (WNW) 2,965 6.4 -14.6°
Sets 20:18:09 0° 285° (WNW) 3,924 7.0 -14.9°
